QPF
0.02 0.02 0.03 0.02 0.02 0.02 0.02 0.02 0.03 0.03 0.02 0.03 0.05 0.07 0.08 0.08 0.09 0.08 0.09 0.10 0.10 0.11 0.10 0.09 0.07 0.06 0.05 0.04 0.04 0.04 0.03 0.03 0.02 0.02 0.02 0.01 0.01 0.02
0.02 0.02 0.03 0.02 0.02 0.02 0.02 0.02 0.02 0.02 0.02 0.02 0.04 0.05 0.07 0.07 0.07 0.08 0.11 0.10 0.09 0.08 0.08 0.08 0.09 0.09 0.07 0.06 0.04 0.04 0.03 0.03 0.02 0.01 0.01 0.01 0.01 0.01
0.02 0.02 0.03 0.03 0.03 0.02 0.02 0.02 0.02 0.02 0.02 0.01 0.02 0.02 0.03 0.05 0.06 0.08 0.10 0.13 0.12 0.09 0.07 0.07 0.07 0.08 0.08 0.08 0.06 0.04 0.03 0.03 0.02 0.01 0.01 0.01 0.01 0.00
0.02 0.02 0.02 0.03 0.05 0.04 0.03 0.02 0.02 0.03 0.03 0.02 0.01 0.02 0.02 0.03 0.05 0.08 0.09 0.11 0.14 0.13 0.11 0.09 0.08 0.08 0.08 0.08 0.08 0.06 0.04 0.03 0.02 0.01 0.01 0.01 0.01 0.00
0.02 0.02 0.02 0.03 0.04 0.05 0.05 0.03 0.03 0.02 0.03 0.02 0.01 0.02 0.02 0.04 0.06 0.08 0.10 0.12 0.12 0.14 0.14 0.13 0.10 0.09 0.08 0.08 0.08 0.07 0.05 0.04 0.03 0.02 0.01 0.01 0.01 0.00
0.02 0.02 0.02 0.02 0.02 0.04 0.04 0.05 0.04 0.03 0.03 0.03 0.02 0.02 0.03 0.04 0.07 0.10 0.11 0.13 0.13 0.13 0.14 0.13 0.12 0.11 0.10 0.09 0.09 0.08 0.06 0.05 0.04 0.03 0.03 0.01 0.01 0.01
0.02 0.02 0.02 0.02 0.02 0.02 0.02 0.04 0.05 0.05 0.04 0.04 0.03 0.03 0.05 0.06 0.08 0.09 0.09 0.11 0.14 0.15 0.16 0.12 0.11 0.09 0.07 0.07 0.07 0.08 0.07 0.06 0.05 0.04 0.04 0.03 0.02 0.01
0.02 0.02 0.02 0.02 0.01 0.00 0.00 0.01 0.02 0.03 0.04 0.04 0.04 0.04 0.08 0.10 0.10 0.10 0.09 0.10 0.12 0.15 0.18 0.18 0.14 0.10 0.06 0.05 0.05 0.05 0.06 0.06 0.05 0.04 0.04 0.03 0.03 0.03
0.02 0.03 0.02 0.02 0.02 0.03 0.03 0.01 0.01 0.00 0.01 0.01 0.02 0.03 0.06 0.12 0.15 0.13 0.10 0.10 0.10 0.13 0.18 0.20 0.21 0.17 0.11 0.07 0.07 0.06 0.06 0.06 0.06 0.05 0.04 0.03 0.03 0.03
0.02 0.03 0.04 0.04 0.04 0.05 0.06 0.05 0.04 0.02 0.02 0.01 0.01 0.02 0.03 0.09 0.16 0.17 0.15 0.12 0.12 0.14 0.17 0.20 0.21 0.20 0.16 0.11 0.10 0.08 0.07 0.07 0.06 0.06 0.06 0.04 0.04 0.03
0.02 0.03 0.04 0.06 0.05 0.02 0.03 0.04 0.03 0.03 0.02 0.01 0.01 0.01 0.02 0.04 0.12 0.17 0.18 0.15 0.13 0.15 0.16 0.19 0.19 0.19 0.19 0.17 0.13 0.11 0.09 0.08 0.07 0.06 0.06 0.06 0.06 0.04
0.03 0.04 0.03 0.02 0.02 0.01 0.02 0.03 0.03 0.03 0.04 0.04 0.03 0.02 0.02 0.03 0.07 0.13 0.14 0.15 0.15 0.16 0.16 0.18 0.20 0.19 0.18 0.17 0.16 0.13 0.10 0.10 0.08 0.07 0.07 0.07 0.06 0.04
0.03 0.03 0.04 0.01 0.00 0.00 0.01 0.02 0.02 0.03 0.05 0.07 0.08 0.08 0.07 0.06 0.07 0.10 0.11 0.12 0.14 0.15 0.15 0.17 0.21 0.22 0.19 0.15 0.13 0.13 0.11 0.09 0.08 0.08 0.07 0.07 0.06 0.05
0.02 0.03 0.04 0.01 0.00 0.00 0.00 0.00 0.00 0.01 0.02 0.04 0.06 0.07 0.09 0.09 0.09 0.11 0.11 0.11 0.13 0.16 0.15 0.17 0.20 0.22 0.21 0.17 0.12 0.11 0.13 0.11 0.09 0.08 0.07 0.08 0.06 0.04
0.01 0.01 0.01 0.00 0.00 0.01 0.00 0.00 0.00 0.01 0.02 0.04 0.05 0.06 0.08 0.10 0.12 0.14 0.14 0.12 0.13 0.15 0.17 0.18 0.20 0.21 0.22 0.18 0.13 0.10 0.11 0.14 0.12 0.09 0.08 0.07 0.05 0.03
0.02 0.01 0.01 0.01 0.00 0.01 0.01 0.01 0.01 0.02 0.03 0.05 0.06 0.07 0.09 0.11 0.13 0.14 0.14 0.13 0.13 0.15 0.16 0.18 0.20 0.22 0.23 0.21 0.17 0.13 0.09 0.09 0.11 0.10 0.08 0.07 0.06 0.04
0.02 0.02 0.03 0.05 0.05 0.05 0.05 0.06 0.07 0.06 0.05 0.06 0.07 0.08 0.09 0.10 0.13 0.16 0.17 0.15 0.14 0.15 0.17 0.17 0.19 0.22 0.23 0.23 0.19 0.16 0.13 0.09 0.08 0.08 0.07 0.07 0.06 0.04
0.01 0.01 0.03 0.05 0.06 0.08 0.09 0.09 0.10 0.10 0.09 0.09 0.08 0.08 0.08 0.09 0.12 0.16 0.18 0.17 0.15 0.16 0.18 0.19 0.21 0.23 0.26 0.26 0.22 0.17 0.14 0.12 0.09 0.08 0.07 0.06 0.06 0.04
0.01 0.02 0.03 0.04 0.06 0.08 0.10 0.11 0.11 0.11 0.11 0.09 0.08 0.08 0.09 0.10 0.12 0.15 0.18 0.18 0.17 0.18 0.20 0.21 0.23 0.20 0.20 0.20 0.19 0.16 0.15 0.12 0.10 0.09 0.07 0.06 0.05 0.04
0.03 0.04 0.06 0.07 0.08 0.09 0.10 0.11 0.11 0.11 0.11 0.10 0.09 0.09 0.09 0.10 0.11 0.14 0.17 0.18 0.17 0.17 0.20 0.22 0.20 0.18 0.16 0.15 0.13 0.10 0.09 0.11 0.09 0.08 0.08 0.07 0.06 0.04
0.08 0.09 0.09 0.09 0.09 0.10 0.10 0.11 0.11 0.11 0.10 0.11 0.11 0.10 0.09 0.09 0.12 0.14 0.16 0.17 0.17 0.17 0.16 0.17 0.18 0.19 0.19 0.19 0.17 0.13 0.08 0.08 0.09 0.09 0.08 0.08 0.06 0.04
0.07 0.08 0.09 0.10 0.10 0.10 0.10 0.11 0.12 0.12 0.11 0.10 0.11 0.11 0.10 0.09 0.11 0.14 0.14 0.15 0.14 0.15 0.15 0.17 0.19 0.19 0.18 0.19 0.19 0.16 0.14 0.11 0.11 0.13 0.14 0.11 0.06 0.03
0.07 0.07 0.07 0.08 0.11 0.11 0.10 0.10 0.10 0.12 0.11 0.10 0.11 0.10 0.08 0.08 0.10 0.12 0.13 0.14 0.15 0.16 0.15 0.17 0.18 0.17 0.16 0.17 0.19 0.18 0.15 0.14 0.12 0.12 0.12 0.11 0.07 0.05
MSLP
1014.16 1014.19 1014.26 1014.34 1014.41 1014.45 1014.43 1014.35 1014.19 1013.97 1013.71 1013.42 1013.13 1012.85 1012.61 1012.42 1012.27 1012.18 1012.12 1012.11 1012.13 1012.18 1012.28 1012.41 1012.60 1012.85 1013.17 1013.58 1014.08 1014.66 1015.31 1016.01 1016.73 1017.45 1018.13 1018.75 1019.29 1019.74
1013.68 1013.68 1013.72 1013.78 1013.85 1013.89 1013.90 1013.86 1013.77 1013.61 1013.42 1013.19 1012.94 1012.70 1012.46 1012.24 1012.04 1011.86 1011.71 1011.58 1011.48 1011.40 1011.38 1011.41 1011.51 1011.70 1012.00 1012.41 1012.94 1013.57 1014.29 1015.07 1015.86 1016.65 1017.38 1018.03 1018.59 1019.04
1013.25 1013.21 1013.21 1013.23 1013.26 1013.30 1013.31 1013.29 1013.23 1013.13 1012.99 1012.82 1012.63 1012.42 1012.20 1011.97 1011.74 1011.50 1011.27 1011.03 1010.81 1010.62 1010.48 1010.41 1010.43 1010.57 1010.84 1011.25 1011.81 1012.49 1013.27 1014.12 1014.99 1015.83 1016.61 1017.30 1017.88 1018.35
1012.86 1012.78 1012.73 1012.70 1012.69 1012.69 1012.69 1012.67 1012.63 1012.56 1012.47 1012.35 1012.21 1012.04 1011.85 1011.63 1011.38 1011.11 1010.81 1010.50 1010.19 1009.89 1009.65 1009.48 1009.43 1009.51 1009.74 1010.15 1010.72 1011.43 1012.26 1013.17 1014.09 1014.99 1015.82 1016.55 1017.16 1017.66
1012.47 1012.35 1012.26 1012.19 1012.13 1012.10 1012.06 1012.03 1011.99 1011.95 1011.89 1011.81 1011.71 1011.59 1011.43 1011.24 1011.00 1010.72 1010.39 1010.02 1009.64 1009.27 1008.95 1008.70 1008.56 1008.58 1008.76 1009.14 1009.70 1010.42 1011.28 1012.21 1013.18 1014.12 1014.99 1015.77 1016.42 1016.97
1012.04 1011.90 1011.77 1011.66 1011.57 1011.50 1011.44 1011.39 1011.35 1011.31 1011.27 1011.22 1011.17 1011.09 1010.97 1010.82 1010.61 1010.34 1010.01 1009.63 1009.22 1008.80 1008.41 1008.09 1007.88 1007.83 1007.95 1008.27 1008.80 1009.50 1010.34 1011.28 1012.26 1013.23 1014.14 1014.97 1015.68 1016.28
1011.54 1011.38 1011.24 1011.11 1011.00 1010.90 1010.82 1010.75 1010.70 1010.66 1010.63 1010.61 1010.59 1010.55 1010.49 1010.38 1010.22 1010.00 1009.70 1009.34 1008.92 1008.49 1008.06 1007.69 1007.41 1007.28 1007.33 1007.58 1008.03 1008.68 1009.48 1010.40 1011.38 1012.37 1013.31 1014.18 1014.96 1015.63
1010.96 1010.80 1010.65 1010.52 1010.40 1010.30 1010.20 1010.12 1010.06 1010.02 1010.00 1009.99 1009.99 1009.99 1009.98 1009.93 1009.84 1009.68 1009.44 1009.12 1008.74 1008.31 1007.87 1007.47 1007.14 1006.94 1006.91 1007.07 1007.44 1008.01 1008.75 1009.63 1010.59 1011.57 1012.55 1013.46 1014.30 1015.06
1010.32 1010.17 1010.04 1009.91 1009.80 1009.69 1009.59 1009.51 1009.44 1009.39 1009.36 1009.36 1009.37 1009.41 1009.44 1009.46 1009.44 1009.35 1009.19 1008.95 1008.63 1008.23 1007.81 1007.39 1007.03 1006.77 1006.66 1006.73 1007.02 1007.50 1008.17 1008.99 1009.92 1010.90 1011.89 1012.85 1013.75 1014.58
1009.69 1009.55 1009.42 1009.31 1009.21 1009.10 1009.00 1008.91 1008.82 1008.76 1008.72 1008.71 1008.74 1008.80 1008.87 1008.94 1008.99 1008.99 1008.92 1008.76 1008.51 1008.18 1007.79 1007.38 1007.01 1006.71 1006.53 1006.54 1006.74 1007.14 1007.74 1008.50 1009.40 1010.37 1011.38 1012.38 1013.34 1014.23
1009.12 1008.99 1008.87 1008.77 1008.66 1008.55 1008.44 1008.33 1008.22 1008.13 1008.07 1008.04 1008.07 1008.13 1008.24 1008.36 1008.47 1008.55 1008.56 1008.50 1008.33 1008.07 1007.74 1007.36 1006.99 1006.67 1006.46 1006.41 1006.55 1006.89 1007.43 1008.15 1009.02 1009.99 1011.00 1012.03 1013.03 1013.98
1008.67 1008.53 1008.41 1008.29 1008.16 1008.03 1007.89 1007.75 1007.60 1007.48 1007.38 1007.34 1007.34 1007.41 1007.53 1007.69 1007.85 1008.00 1008.09 1008.11 1008.03 1007.84 1007.57 1007.24 1006.90 1006.59 1006.37 1006.29 1006.39 1006.69 1007.20 1007.89 1008.74 1009.70 1010.73 1011.78 1012.81 1013.79
1008.34 1008.18 1008.03 1007.87 1007.70 1007.53 1007.34 1007.15 1006.96 1006.79 1006.66 1006.58 1006.57 1006.63 1006.75 1006.93 1007.14 1007.33 1007.49 1007.58 1007.58 1007.47 1007.27 1006.99 1006.69 1006.41 1006.20 1006.12 1006.21 1006.50 1006.99 1007.66 1008.50 1009.46 1010.49 1011.55 1012.60 1013.59
1008.11 1007.91 1007.70 1007.48 1007.25 1007.01 1006.76 1006.51 1006.27 1006.06 1005.88 1005.77 1005.74 1005.79 1005.92 1006.11 1006.35 1006.58 1006.79 1006.94 1007.00 1006.96 1006.82 1006.61 1006.36 1006.12 1005.94 1005.88 1005.98 1006.27 1006.76 1007.43 1008.26 1009.21 1010.24 1011.30 1012.34 1013.33
1007.91 1007.64 1007.36 1007.07 1006.76 1006.44 1006.12 1005.81 1005.52 1005.26 1005.06 1004.93 1004.89 1004.94 1005.07 1005.28 1005.53 1005.80 1006.04 1006.24 1006.35 1006.36 1006.28 1006.12 1005.93 1005.74 1005.60 1005.57 1005.69 1006.00 1006.49 1007.16 1007.99 1008.93 1009.95 1010.99 1012.01 1012.97
1007.66 1007.32 1006.96 1006.58 1006.19 1005.79 1005.41 1005.05 1004.72 1004.44 1004.22 1004.09 1004.05 1004.11 1004.25 1004.48 1004.75 1005.04 1005.31 1005.54 1005.68 1005.74 1005.71 1005.61 1005.46 1005.32 1005.23 1005.24 1005.39 1005.70 1006.20 1006.87 1007.68 1008.60 1009.59 1010.60 1011.59 1012.52
1007.28 1006.87 1006.43 1005.97 1005.51 1005.06 1004.63 1004.23 1003.89 1003.61 1003.41 1003.29 1003.28 1003.36 1003.53 1003.77 1004.06 1004.37 1004.66 1004.91 1005.09 1005.18 1005.19 1005.14 1005.04 1004.94 1004.89 1004.93 1005.11 1005.44 1005.93 1006.58 1007.37 1008.26 1009.21 1010.18 1011.12 1012.01
1006.74 1006.27 1005.77 1005.26 1004.75 1004.26 1003.81 1003.42 1003.09 1002.84 1002.67 1002.59 1002.61 1002.73 1002.92 1003.19 1003.50 1003.82 1004.13 1004.40 1004.60 1004.73 1004.77 1004.76 1004.71 1004.65 1004.64 1004.72 1004.91 1005.24 1005.72 1006.35 1007.11 1007.95 1008.85 1009.77 1010.66 1011.50
1006.04 1005.54 1005.01 1004.47 1003.95 1003.47 1003.03 1002.67 1002.37 1002.17 1002.05 1002.02 1002.08 1002.23 1002.46 1002.74 1003.06 1003.40 1003.72 1004.00 1004.22 1004.37 1004.46 1004.48 1004.48 1004.47 1004.50 1004.60 1004.81 1005.14 1005.61 1006.20 1006.91 1007.71 1008.55 1009.41 1010.25 1011.05
1005.25 1004.74 1004.21 1003.69 1003.19 1002.74 1002.35 1002.04 1001.80 1001.65 1001.59 1001.60 1001.70 1001.88 1002.12 1002.41 1002.73 1003.06 1003.38 1003.67 1003.90 1004.08 1004.21 1004.28 1004.32 1004.37 1004.44 1004.57 1004.79 1005.13 1005.58 1006.14 1006.81 1007.55 1008.34 1009.14 1009.93 1010.69
1004.42 1003.95 1003.46 1002.98 1002.54 1002.15 1001.83 1001.59 1001.41 1001.32 1001.29 1001.34 1001.46 1001.63 1001.86 1002.14 1002.44 1002.75 1003.05 1003.34 1003.59 1003.80 1003.96 1004.08 1004.18 1004.28 1004.41 1004.58 1004.83 1005.17 1005.61 1006.14 1006.77 1007.46 1008.20 1008.96 1009.71 1010.44
1003.66 1003.24 1002.82 1002.42 1002.07 1001.76 1001.52 1001.34 1001.23 1001.17 1001.17 1001.22 1001.33 1001.47 1001.66 1001.89 1002.14 1002.41 1002.69 1002.96 1003.22 1003.45 1003.65 1003.83 1004.00 1004.16 1004.34 1004.57 1004.85 1005.21 1005.64 1006.16 1006.76 1007.41 1008.11 1008.83 1009.56 1010.27
1003.02 1002.69 1002.36 1002.06 1001.80 1001.59 1001.43 1001.31 1001.24 1001.20 1001.20 1001.23 1001.28 1001.37 1001.48 1001.64 1001.82 1002.03 1002.26 1002.50 1002.76 1003.00 1003.25 1003.48 1003.71 1003.95 1004.20 1004.48 1004.81 1005.19 1005.64 1006.15 1006.73 1007.36 1008.03 1008.72 1009.43 1010.14
Thickness
5650 5650 5649 5650 5651 5652 5653 5652 5649 5648 5655 5666 5672 5680 5684 5687 5692 5695 5698 5702 5704 5706 5709 5711 5713 5715 5716 5717 5717 5718 5719 5719 5720 5720 5720 5719 5719 5718
5643 5642 5641 5642 5643 5644 5644 5645 5646 5644 5646 5655 5661 5668 5674 5679 5683 5687 5691 5695 5698 5701 5704 5706 5709 5711 5713 5715 5716 5716 5717 5718 5719 5719 5719 5719 5719 5718
5635 5635 5634 5634 5633 5634 5635 5636 5637 5638 5638 5645 5652 5659 5663 5668 5673 5679 5683 5687 5692 5696 5699 5702 5705 5708 5710 5712 5713 5714 5715 5716 5717 5718 5718 5718 5718 5718
5627 5626 5625 5625 5625 5624 5625 5626 5628 5631 5632 5634 5640 5647 5652 5659 5664 5670 5676 5681 5686 5691 5695 5698 5701 5704 5707 5709 5710 5712 5713 5714 5715 5716 5717 5717 5717 5717
5619 5618 5617 5616 5615 5615 5616 5617 5620 5624 5626 5627 5632 5637 5643 5650 5655 5661 5667 5673 5679 5684 5689 5692 5696 5700 5703 5705 5707 5710 5711 5712 5714 5715 5715 5716 5716 5716
5612 5610 5609 5608 5608 5608 5608 5609 5611 5613 5616 5619 5623 5628 5633 5640 5645 5649 5655 5663 5670 5677 5682 5686 5690 5694 5697 5701 5703 5706 5708 5710 5711 5712 5713 5714 5714 5714
5604 5603 5603 5603 5603 5602 5602 5602 5602 5603 5605 5608 5613 5618 5624 5628 5633 5640 5645 5652 5660 5667 5673 5678 5682 5686 5690 5694 5698 5701 5704 5706 5707 5709 5710 5711 5711 5712
5596 5595 5595 5596 5597 5596 5596 5595 5595 5594 5595 5598 5602 5606 5612 5618 5623 5629 5635 5640 5647 5657 5662 5667 5675 5679 5685 5689 5694 5697 5699 5701 5703 5705 5706 5708 5708 5709
5589 5588 5588 5591 5590 5590 5589 5589 5589 5589 5589 5590 5593 5597 5602 5608 5613 5619 5624 5630 5638 5646 5651 5657 5665 5670 5677 5683 5687 5691 5694 5696 5698 5700 5702 5703 5704 5705
5584 5583 5582 5582 5582 5581 5581 5582 5582 5584 5585 5585 5588 5592 5596 5600 5604 5609 5615 5621 5630 5637 5643 5646 5654 5660 5667 5672 5678 5682 5686 5689 5692 5694 5696 5698 5699 5700
5580 5580 5578 5577 5575 5574 5572 5573 5574 5576 5579 5582 5585 5588 5591 5594 5597 5600 5606 5611 5618 5626 5634 5639 5645 5650 5656 5662 5667 5673 5678 5682 5685 5688 5690 5692 5693 5694
5576 5575 5574 5571 5569 5566 5565 5564 5564 5566 5569 5573 5576 5580 5583 5587 5591 5594 5598 5603 5610 5617 5626 5631 5637 5641 5645 5652 5657 5662 5667 5672 5676 5679 5683 5685 5686 5687
5570 5569 5567 5564 5561 5558 5556 5556 5556 5557 5559 5562 5566 5571 5576 5581 5585 5590 5594 5598 5604 5610 5619 5624 5628 5634 5639 5643 5648 5654 5658 5663 5666 5670 5673 5677 5680 5683
5564 5562 5560 5555 5552 5549 5548 5548 5548 5548 5551 5555 5559 5564 5569 5574 5580 5585 5589 5594 5600 5606 5612 5617 5622 5627 5631 5635 5640 5645 5649 5654 5659 5663 5665 5667 5671 5675
5559 5557 5553 5548 5546 5545 5544 5542 5541 5542 5545 5549 5553 5558 5563 5569 5573 5578 5582 5587 5593 5599 5605 5610 5616 5621 5626 5631 5635 5638 5641 5646 5651 5656 5658 5661 5665 5668
5555 5552 5549 5546 5543 5542 5541 5541 5540 5541 5543 5546 5550 5554 5558 5562 5566 5571 5575 5579 5584 5590 5598 5603 5609 5614 5619 5625 5629 5632 5636 5640 5645 5649 5652 5654 5658 5662
5547 5546 5546 5545 5544 5543 5542 5542 5542 5541 5541 5543 5545 5549 5552 5555 5560 5565 5569 5573 5577 5583 5589 5596 5602 5608 5613 5618 5622 5626 5630 5633 5638 5641 5644 5646 5650 5655
5540 5543 5544 5543 5542 5541 5541 5541 5541 5540 5541 5542 5543 5545 5547 5551 5554 5559 5563 5568 5573 5579 5584 5589 5593 5597 5602 5608 5616 5620 5623 5627 5630 5633 5637 5640 5642 5647
5540 5543 5544 5543 5542 5541 5541 5540 5540 5541 5541 5541 5542 5543 5545 5547 5551 5554 5558 5563 5569 5574 5579 5584 5589 5593 5596 5601 5608 5615 5619 5621 5623 5625 5629 5634 5637 5640
5547 5547 5546 5545 5544 5542 5541 5540 5540 5540 5540 5540 5541 5542 5543 5545 5548 5551 5555 5560 5564 5569 5573 5578 5583 5589 5594 5599 5603 5607 5612 5616 5618 5619 5622 5625 5627 5629
5552 5551 5549 5547 5545 5543 5542 5540 5540 5539 5539 5539 5540 5541 5542 5544 5546 5549 5552 5556 5560 5564 5568 5573 5580 5585 5589 5593 5596 5599 5602 5607 5613 5616 5616 5617 5619 5621
5553 5552 5550 5548 5546 5544 5542 5541 5540 5539 5538 5538 5539 5540 5541 5543 5545 5548 5551 5554 5558 5562 5567 5571 5575 5579 5582 5587 5591 5594 5595 5596 5599 5604 5608 5613 5618 5621
5554 5551 5549 5547 5546 5544 5543 5542 5540 5539 5538 5538 5538 5539 5541 5542 5544 5547 5550 5553 5557 5560 5564 5567 5571 5574 5578 5581 5585 5587 5589 5590 5592 5594 5594 5601 5609 5616